Regional Weather Roundup
Issued by NWS

Home | Current Version | Previous Version | Graphics & Text | Print | Product List | Glossary On
Versions: 1 2 3 4 5 6 7 8 9 10 11 12 13 14 15 16 17 18 19 20 21 22 23 24 25 26 27 28 29 30 31 32 33 34 35 36 37 38 39 40 41 42 43 44 45 46 47 48 49 50
410
ASUS43 KMPX 311301
RWRMN
WEATHER ROUNDUP FOR MINNESOTA
NATIONAL WEATHER SERVICE TWIN CITIES/CHANHASSEN MN
800 AM CDT WED AUG 31 2016


NOTE: "FAIR" INDICATES FEW OR NO CLOUDS BELOW 12,000 FEET WITH NO
SIGNIFICANT WEATHER AND/OR OBSTRUCTIONS TO VISIBILITY. N/A MEANS
CURRENT SKY AND/OR WEATHER CONDITIONS ARE NOT AVAILABLE.

MNZ060>063-068>070-311400-
   Twin Cities Metro

CITY           SKY/WX    TMP DP  RH WIND       PRES   REMARKS
TWIN CITIES    MOSUNNY   62  55  77 CALM      30.21S
ST PAUL        SUNNY     60  57  89 NW5       30.21S
CRYSTAL        SUNNY     59  54  83 NW5       30.21R
BLAINE         MOSUNNY   57  57 100 CALM      30.22R
LAKEVILLE      SUNNY     57  57 100 CALM      30.21S
EDEN PRAIRIE   SUNNY     61  56  83 CALM      30.20S
LAKEVILLE      SUNNY     57  57 100 CALM      30.21S
SOUTH ST PAUL  SUNNY     61  57  84 N3        30.20S
LAKE ELMO      FAIR      55  55 100 CALM      30.22S
$$
MNZ001>005-007-008-013>017-022>024-027-028-311400-
   Northwest Minnesota

CITY           SKY/WX    TMP DP  RH WIND       PRES   REMARKS
BEMIDJI        SUNNY     50  49  95 CALM      30.26R
HALLOCK        SUNNY     54  50  87 CALM      30.28R
ROSEAU         SUNNY     52  46  82 CALM      30.27F
WARROAD        SUNNY     52  48  87 NW5       30.28S
THIEF RVR FALL SUNNY     55  51  86 NE3       30.28R
CROOKSTON      PTSUNNY   55  52  88 CALM      30.27S
FOSSTON        CLOUDY    55  54  94 CALM      30.27S
DETROIT LAKES  SUNNY     59  55  88 CALM      30.27S
MOORHEAD       SUNNY     54  52  94 CALM      30.26R
MAHNOMEN       CLOUDY    54  52  95 NE3       30.26R
$$
MNZ006-009>011-018-025>026-311400-
   North Central Minnesota

CITY           SKY/WX    TMP DP  RH WIND       PRES   REMARKS
BAUDETTE       MOSUNNY   54  52  93 CALM      30.26R
FLAG ISLAND    SUNNY     59  55  88 CALM      30.25F FOG
INTL FALLS     SUNNY     53  51  93 NW5       30.24S
WASKISH        SUNNY     52  52 100 CALM      30.25F
BIG FORK       SUNNY     48  46  93 CALM      30.25S
LONGVILLE      MOSUNNY   52  52 100 CALM      30.24S
GRAND RAPIDS   SUNNY     54  53  97 CALM      30.26S
CRANE LAKE     SUNNY     45  45 100 CALM      30.24F
COOK           SUNNY     48  46  93 CALM      30.24R
WALKER         FAIR      51  51  99 W3        30.26R
$$
MNZ012-019>021-037-311400-
   Northeast Minnesota

CITY           SKY/WX    TMP DP  RH WIND       PRES   REMARKS
DULUTH         MOSUNNY   57  51  80 N7        30.21F
ELY            SUNNY     48  48 100 CALM      30.22S
HIBBING        SUNNY     51  49  92 NW3       30.23S
EVELETH        SUNNY     48  47  97 CALM      30.23S
DULUTH HARBOR  SUNNY     55  54  94 CALM      30.21S
TWO HARBORS    SUNNY     61  54  77 N3        30.18F
SILVER BAY     SUNNY     55  52  88 CALM      30.19S
GRAND MARAIS     N/A     64  53  67 N8        30.16R
G MARAIS ARPRT SUNNY     55  50  82 NW6       30.21R
$$
MNZ029>031-032-039>041-046>048-054>057-064-311400-
   West Central Minnesota

CITY           SKY/WX    TMP DP  RH WIND       PRES   REMARKS
FERGUS FALLS   SUNNY     59  57  94 NE5       30.26S
WHEATON        MOSUNNY   59  57  94 CALM      30.27R
MORRIS         SUNNY     57  55  94 CALM      30.24R
ALEXANDRIA     SUNNY     62  57  83 CALM      30.25S
ELBOW LAKE     FAIR      60  58  94 CALM      30.26R
GLENWOOD       SUNNY     57  57 100 NE3       30.25R
APPLETON       PTSUNNY   61  55  82 CALM      30.24R
BENSON         SUNNY     55  54  94 CALM      30.25R
ORTONVILLE     CLOUDY    63  57  82 CALM      30.24S
MADISON        MOSUNNY   57  55  94 CALM      30.24S
WILLMAR        FAIR      61  57  88 CALM      30.25S
$$
MNZ033>034-036-042>043-049>051-058-059-311400-
   Central Minnesota

CITY           SKY/WX    TMP DP  RH WIND       PRES   REMARKS
ST CLOUD       SUNNY     57  56  96 CALM      30.23R
SAUK CENTRE    FAIR      54  54  99 CALM      30.24S
PAYNESVILLE    SUNNY     53  53 100 CALM      30.25R
AITKIN         SUNNY     55  50  82 CALM      30.22S
PINE RIVER     SUNNY     52  52 100 CALM      30.27S
BRAINERD       FOG       53  53 100 CALM      30.24R VSB<1/4
STAPLES        SUNNY     54  54 100 CALM      30.25R
LONG PRAIRIE   FAIR      55  54  94 CALM      30.25S
LITTLE FALLS   SUNNY     52  52 100 CALM      30.23S
LITCHFIELD     SUNNY     63  57  82 CALM      30.24S
BUFFALO        SUNNY     57  54  88 CALM      30.23S
MAPLE LAKE     SUNNY     58  58  99 CALM      30.24R
HUTCHINSON     SUNNY     59  59  99 CALM      30.24S
$$
MNZ037-044-045-052-053-311400-
   East Central Minnesota

CITY           SKY/WX    TMP DP  RH WIND       PRES   REMARKS
PRINCETON      SUNNY     55  55 100 CALM      30.23R
MORA           SUNNY     54  52  94 CALM      30.24S
CAMBRIDGE      SUNNY     55  52  88 CALM      30.21R
RUSH CITY      SUNNY     54  53  97 CALM      30.22S
MOOSE LAKE     SUNNY     54  50  87 CALM      30.21R
HINCKLEY       FAIR      55  54  94 CALM      30.22S
CLOQUET        SUNNY     54  48  82 NW6       30.22S
MCGREGOR       SUNNY     52  50  93 CALM      30.24S
$$
MNZ071>073-080-081-089-090-097-098-311400-
   Southwest Minnesota

CITY           SKY/WX    TMP DP  RH WIND       PRES   REMARKS
MONTEVIDEO     CLOUDY    61  59  94 CALM      30.26R
GRANITE FALLS  SUNNY     58  57  97 CALM      30.25S
CANBY          MOSUNNY   58  56  94 CALM      30.26S
MARSHALL       SUNNY     57  55  93 NW3       30.25R
REDWOOD FALLS  SUNNY     60  57  89 CALM      30.23R
OLIVIA         SUNNY     57  54  88 CALM      30.23R
WINDOM         SUNNY     57  54  88 CALM      30.23S
WORTHINGTON    SUNNY     56  55  97 CALM      30.25R
JACKSON        SUNNY     57  54  88 CALM      30.24R
TRACY          SUNNY     61  57  85 W3        30.25R
SLAYTON        SUNNY     54  54 100 NW3       30.26R
$$
MNZ065>067-074>077-082>085-091>093-311400-
   South Central Minnesota

CITY           SKY/WX    TMP DP  RH WIND       PRES   REMARKS
NEW ULM        SUNNY     57  55  94 CALM      30.22S
ST JAMES       SUNNY     57  57 100 CALM      30.23S
FAIRMONT       SUNNY     56  56 100 NW5       30.22
GLENCOE        SUNNY     58  58 100 CALM      30.22R
FARIBAULT      SUNNY     55  55 100 CALM      30.21S
OWATONNA       SUNNY     55  54  94 CALM      30.21S
WASECA         SUNNY     55  55 100 CALM      30.22S
ALBERT LEA     SUNNY     57  55  94 CALM      30.20S
$$
MNZ078>079-086>088-094>096-311400-
   Southeast Minnesota

CITY           SKY/WX    TMP DP  RH WIND       PRES   REMARKS
ROCHESTER      SUNNY     59  57  93 NW3       30.21R
RED WING       FOG       55  55 100 CALM      30.19S VSB<1/4
STANTON        SUNNY     54  52  94 CALM      30.20S
DODGE CENTER   SUNNY     59  55  88 N5        30.20S
WINONA         FOG       57  57 100 CALM      30.19R VSB 1/2
AUSTIN         SUNNY     57  54  88 CALM      30.20S
PRESTON        SUNNY     58  55  89 CALM      30.20R
$$
ABBREVIATIONS USED IN REMARKS
   TC - TEMPERATURES IN CELSIUS
  WCI - WIND CHILL INDEX
   HX - HEAT INDEX
  VSB - VISIBILITY
$$




USA.gov is the U.S. government's official web portal to all federal, state and local government web resources and services.